TimeEDT,TemperatureF,Dew PointF,Humidity,Sea Level PressureIn,VisibilityMPH,Wind Direction,Wind SpeedMPH,Gust SpeedMPH,PrecipitationIn,Events,Conditions,WindDirDegrees,DateUTC
12:15 AM,47.7,44.8,90,30.13,10.0,Calm,Calm,-,N/A,,Clear,0,2013-09-27 04:15:00
12:35 AM,46.4,43.7,90,30.13,10.0,Calm,Calm,-,N/A,,Clear,0,2013-09-27 04:35:00
12:55 AM,47.8,44.6,89,30.13,10.0,Calm,Calm,-,N/A,,Clear,0,2013-09-27 04:55:00
1:15 AM,46.4,43.5,90,30.13,10.0,Calm,Calm,-,N/A,,Clear,0,2013-09-27 05:15:00
1:35 AM,46.4,43.7,90,30.13,10.0,Calm,Calm,-,N/A,,Clear,0,2013-09-27 05:35:00
1:55 AM,45.1,42.4,90,30.14,10.0,Calm,Calm,-,N/A,,Clear,0,2013-09-27 05:55:00
2:15 AM,45.7,43.3,92,30.15,10.0,Calm,Calm,-,N/A,,Clear,0,2013-09-27 06:15:00
2:35 AM,45.1,43.0,92,30.15,10.0,Calm,Calm,-,N/A,,Clear,0,2013-09-27 06:35:00
2:55 AM,45.5,42.6,90,30.14,10.0,Calm,Calm,-,N/A,,Clear,0,2013-09-27 06:55:00
3:15 AM,44.6,42.4,92,30.14,10.0,Calm,Calm,-,N/A,,Clear,0,2013-09-27 07:15:00
3:35 AM,44.8,42.8,93,30.14,7.0,Calm,Calm,-,N/A,,Scattered Clouds,0,2013-09-27 07:35:00
3:55 AM,43.9,41.9,93,30.14,2.0,Calm,Calm,-,N/A,,Overcast,0,2013-09-27 07:55:00
4:15 AM,43.0,41.4,94,30.14,0.8,Calm,Calm,-,N/A,,Overcast,0,2013-09-27 08:15:00
4:35 AM,42.8,41.4,95,30.14,10.0,Calm,Calm,-,N/A,,Mostly Cloudy,0,2013-09-27 08:35:00
4:55 AM,43.9,42.4,95,30.15,2.5,Calm,Calm,-,N/A,,Mostly Cloudy,0,2013-09-27 08:55:00
5:15 AM,42.8,41.0,93,30.16,1.2,Calm,Calm,-,N/A,,Overcast,0,2013-09-27 09:15:00
5:35 AM,42.1,40.6,95,30.16,7.0,Calm,Calm,-,N/A,,Mostly Cloudy,0,2013-09-27 09:35:00
5:55 AM,42.4,41.2,95,30.16,2.5,Calm,Calm,-,N/A,,Mostly Cloudy,0,2013-09-27 09:55:00
6:15 AM,42.3,41.0,95,30.16,10.0,Calm,Calm,-,N/A,,Scattered Clouds,0,2013-09-27 10:15:00
6:35 AM,41.7,40.3,95,30.17,10.0,Calm,Calm,-,N/A,,Scattered Clouds,0,2013-09-27 10:35:00
6:55 AM,41.9,40.1,93,30.17,7.0,Calm,Calm,-,N/A,,Mostly Cloudy,0,2013-09-27 10:55:00
7:15 AM,41.7,39.9,93,30.19,10.0,Calm,Calm,-,N/A,,Overcast,0,2013-09-27 11:15:00
7:35 AM,41.7,39.4,91,30.19,7.0,Calm,Calm,-,N/A,,Mostly Cloudy,0,2013-09-27 11:35:00
7:55 AM,43.3,41.4,93,30.20,10.0,Calm,Calm,-,N/A,,Clear,0,2013-09-27 11:55:00
8:15 AM,45.1,43.0,92,30.21,10.0,Calm,Calm,-,N/A,,Clear,0,2013-09-27 12:15:00
8:35 AM,46.8,44.6,92,30.21,10.0,Calm,Calm,-,N/A,,Clear,0,2013-09-27 12:35:00
8:55 AM,49.1,46.4,90,30.22,10.0,Calm,Calm,-,N/A,,Clear,0,2013-09-27 12:55:00
9:15 AM,51.1,47.7,88,30.22,10.0,Calm,Calm,-,N/A,,Clear,0,2013-09-27 13:15:00
9:35 AM,54.1,49.5,84,30.23,10.0,Calm,Calm,-,N/A,,Clear,0,2013-09-27 13:35:00
9:55 AM,55.9,49.3,78,30.23,10.0,Calm,Calm,-,N/A,,Clear,0,2013-09-27 13:55:00
10:15 AM,58.3,49.8,73,30.23,10.0,Calm,Calm,-,N/A,,Clear,0,2013-09-27 14:15:00
10:35 AM,60.1,48.9,67,30.23,10.0,Calm,Calm,-,N/A,,Clear,0,2013-09-27 14:35:00
10:55 AM,62.4,49.5,63,30.23,10.0,Calm,Calm,-,N/A,,Clear,0,2013-09-27 14:55:00
11:15 AM,64.8,50.4,60,30.23,10.0,Calm,Calm,-,N/A,,Clear,0,2013-09-27 15:15:00
11:35 AM,65.5,48.9,55,30.23,10.0,Calm,Calm,-,N/A,,Clear,0,2013-09-27 15:35:00
11:55 AM,67.3,50.0,54,30.23,10.0,Calm,Calm,-,N/A,,Clear,0,2013-09-27 15:55:00
12:15 PM,67.8,49.5,52,30.22,10.0,Calm,Calm,-,N/A,,Clear,0,2013-09-27 16:15:00
12:35 PM,70.2,48.9,47,30.22,10.0,SSE,4.6,-,N/A,,Clear,150,2013-09-27 16:35:00
12:55 PM,69.8,47.7,45,30.21,10.0,Calm,Calm,-,N/A,,Clear,0,2013-09-27 16:55:00
1:15 PM,70.5,49.1,47,30.21,10.0,SSE,6.9,-,N/A,,Scattered Clouds,160,2013-09-27 17:15:00
1:35 PM,69.1,48.9,49,30.20,10.0,SE,3.5,-,N/A,,Mostly Cloudy,140,2013-09-27 17:35:00
1:55 PM,70.0,48.7,47,30.20,10.0,SSE,4.6,-,N/A,,Mostly Cloudy,150,2013-09-27 17:55:00
2:15 PM,68.9,48.7,49,30.20,10.0,Calm,Calm,-,N/A,,Overcast,0,2013-09-27 18:15:00
2:35 PM,69.6,47.3,45,30.19,10.0,Calm,Calm,-,N/A,,Mostly Cloudy,0,2013-09-27 18:35:00
2:55 PM,71.6,47.7,43,30.19,10.0,WSW,3.5,-,N/A,,Mostly Cloudy,240,2013-09-27 18:55:00
3:15 PM,71.2,48.0,44,30.19,10.0,NE,4.6,-,N/A,,Overcast,50,2013-09-27 19:15:00
3:35 PM,69.8,47.8,46,30.19,10.0,East,4.6,-,N/A,,Mostly Cloudy,90,2013-09-27 19:35:00
3:55 PM,69.6,49.8,49,30.19,10.0,ESE,4.6,-,N/A,,Overcast,120,2013-09-27 19:55:00
4:15 PM,69.1,49.5,50,30.18,10.0,SSE,6.9,-,N/A,,Scattered Clouds,150,2013-09-27 20:15:00
4:35 PM,70.2,48.9,47,30.18,10.0,ESE,4.6,-,N/A,,Clear,110,2013-09-27 20:35:00
4:55 PM,70.3,48.4,46,30.18,10.0,Calm,Calm,-,N/A,,Clear,0,2013-09-27 20:55:00
5:15 PM,69.8,49.5,48,30.18,10.0,SE,3.5,-,N/A,,Clear,130,2013-09-27 21:15:00
5:35 PM,69.8,50.0,49,30.18,10.0,ESE,3.5,-,N/A,,Clear,120,2013-09-27 21:35:00
5:55 PM,69.3,51.1,52,30.19,10.0,SE,6.9,-,N/A,,Mostly Cloudy,130,2013-09-27 21:55:00
6:15 PM,67.1,50.9,56,30.19,10.0,ESE,6.9,-,N/A,,Overcast,120,2013-09-27 22:15:00
6:35 PM,66.6,51.1,57,30.20,10.0,ESE,4.6,-,N/A,,Overcast,120,2013-09-27 22:35:00
6:55 PM,65.8,51.8,60,30.20,10.0,SSE,3.5,-,N/A,,Overcast,150,2013-09-27 22:55:00
7:15 PM,65.1,52.3,63,30.20,10.0,SE,4.6,-,N/A,,Overcast,130,2013-09-27 23:15:00
7:35 PM,64.6,52.0,64,30.20,10.0,SE,3.5,-,N/A,,Overcast,130,2013-09-27 23:35:00
7:55 PM,64.4,52.3,65,30.21,10.0,Calm,Calm,-,N/A,,Overcast,0,2013-09-27 23:55:00
8:15 PM,63.1,52.7,69,30.21,10.0,Calm,Calm,-,N/A,,Overcast,0,2013-09-28 00:15:00
8:35 PM,63.7,52.0,66,30.22,10.0,Calm,Calm,-,N/A,,Overcast,0,2013-09-28 00:35:00
8:55 PM,61.7,52.9,73,30.22,10.0,Calm,Calm,-,N/A,,Overcast,0,2013-09-28 00:55:00
9:15 PM,61.5,53.2,74,30.23,10.0,Calm,Calm,-,N/A,,Overcast,0,2013-09-28 01:15:00
9:35 PM,61.2,52.9,74,30.23,10.0,Calm,Calm,-,N/A,,Overcast,0,2013-09-28 01:35:00
9:55 PM,59.4,53.1,80,30.24,10.0,Calm,Calm,-,N/A,,Overcast,0,2013-09-28 01:55:00
10:15 PM,59.7,53.6,80,30.25,10.0,Calm,Calm,-,N/A,,Overcast,0,2013-09-28 02:15:00
10:35 PM,58.1,53.1,83,30.25,10.0,Calm,Calm,-,N/A,,Overcast,0,2013-09-28 02:35:00
10:55 PM,58.1,53.2,84,30.26,10.0,Calm,Calm,-,N/A,,Overcast,0,2013-09-28 02:55:00
11:15 PM,58.3,53.1,83,30.26,10.0,Calm,Calm,-,N/A,,Overcast,0,2013-09-28 03:15:00
11:35 PM,57.7,52.9,84,30.26,10.0,Calm,Calm,-,N/A,,Overcast,0,2013-09-28 03:35:00
11:55 PM,58.1,52.9,83,30.26,10.0,Calm,Calm,-,N/A,,Overcast,0,2013-09-28 03:55:00